Sylvania, OH

9:38 PM EST on December 10, 2016 (GMT -0500)
Lambertville

Weather History for KDUH - October, 2012

Change the Weather History Date:

Sunday, October 7, 2012

  Actual Average (KTOL) Record (KTOL)
Temperature  
Mean Temperature 45 °F -  
Max Temperature 49 °F 63 °F 91 °F (1963)
Min Temperature 41 °F 41 °F 23 °F (1964)
Degree Days  
Heating Degree Days 20    
Moisture  
Dew Point 37 °F    
Average Humidity 75    
Maximum Humidity 88    
Minimum Humidity 57    
Precipitation  
Precipitation 0.00 in - - ()
Sea Level Pressure  
Sea Level Pressure 30.12 in    
Wind  
Wind Speed 2 mph (West)    
Max Wind Speed 13 mph    
Max Gust Speed 20 mph    
Visibility 10 miles    
Events      
Averages and records for this station are not official NWS values.
T = Trace of Precipitation, MM = Missing Value Source: NWS Daily Summary

Daily Weather History Graph

Daily Weather History Graph

Search for Another Location

Airport or City:

Trip Planner

Search our weather history database for the weather conditions in past years. The results will help you decide how hot, cold, wet, or windy it might be!

Date:

Astronomy

Oct. 07, 2012 Rise Set
Actual Time 7:38 AM EDT 7:05 PM EDT
Civil Twilight 7:10 AM EDT 7:33 PM EDT
Nautical Twilight 6:38 AM EDT 8:05 PM EDT
Astronomical Twilight 6:06 AM EDT 8:37 PM EDT
Moon No Moon Rise 2:18 PM EDT (10/7)
Length of Visible Light 12h 22m
Length of Day
11h 26m
Waning Gibbous, 56% of the Moon is Illuminated
Oct 7
Waning Gibbous
Oct 8
Last Quarter
Oct 15
New
Oct 21
First Quarter
Oct 29
Full

Hourly Weather History & Observations

Time (EDT) Temp. Windchill Dew Point Humidity Pressure Visibility Wind Dir Wind Speed Gust Speed Precip Events Conditions
12:15 AM 43.9 °F 42.3 °F 37.4 °F 78% 30.13 in 10.0 mi WNW 3.5 mph - N/A   Overcast
12:35 AM 43.9 °F 42.3 °F 37.6 °F 78% 30.13 in 10.0 mi West 3.5 mph - N/A   Overcast
12:55 AM 43.7 °F 41.1 °F 37.4 °F 78% 30.13 in 10.0 mi West 4.6 mph - N/A   Overcast
1:15 AM 43.7 °F 42.1 °F 37.6 °F 79% 30.12 in 10.0 mi West 3.5 mph - N/A   Overcast
1:35 AM 43.7 °F 42.1 °F 37.9 °F 80% 30.12 in 10.0 mi WNW 3.5 mph - N/A   Overcast
1:55 AM 43.3 °F 41.7 °F 37.9 °F 81% 30.12 in 10.0 mi West 3.5 mph - N/A   Overcast
2:15 AM 43.2 °F - 37.9 °F 82% 30.13 in 10.0 mi Calm Calm - N/A   Overcast
2:35 AM 43.0 °F - 38.1 °F 83% 30.13 in 10.0 mi Calm Calm - N/A   Overcast
2:55 AM 43.2 °F - 37.9 °F 82% 30.12 in 10.0 mi Calm Calm - N/A   Overcast
3:15 AM 43.0 °F - 37.9 °F 82% 30.11 in 10.0 mi Calm Calm - N/A   Overcast
3:35 AM 42.8 °F - 37.9 °F 83% 30.11 in 10.0 mi Calm Calm - N/A   Overcast
3:55 AM 42.6 °F - 37.9 °F 83% 30.10 in 10.0 mi Calm Calm - N/A   Overcast
4:15 AM 42.8 °F - 38.3 °F 84% 30.10 in 10.0 mi Calm Calm - N/A   Overcast
4:35 AM 42.6 °F - 38.1 °F 84% 30.10 in 10.0 mi Calm Calm - N/A   Overcast
4:55 AM 42.4 °F - 37.9 °F 84% 30.10 in 10.0 mi Calm Calm - N/A   Overcast
5:15 AM 42.6 °F - 37.9 °F 83% 30.09 in 10.0 mi Calm Calm - N/A   Overcast
5:35 AM 42.4 °F - 37.8 °F 83% 30.10 in 10.0 mi Calm Calm - N/A   Overcast
5:55 AM 42.4 °F - 37.6 °F 83% 30.10 in 10.0 mi Calm Calm - N/A   Overcast
6:15 AM 42.6 °F - 37.8 °F 83% 30.10 in 10.0 mi Calm Calm - N/A   Overcast
6:35 AM 42.3 °F 40.5 °F 37.6 °F 83% 30.10 in 10.0 mi NW 3.5 mph - N/A   Overcast
6:55 AM 42.3 °F - 37.6 °F 83% 30.11 in 10.0 mi Calm Calm - N/A   Overcast
7:15 AM 42.4 °F - 37.4 °F 82% 30.10 in 10.0 mi Calm Calm - N/A   Overcast
7:35 AM 42.1 °F - 37.6 °F 84% 30.10 in 10.0 mi Calm Calm - N/A   Overcast
7:55 AM 41.4 °F - 37.8 °F 87% 30.11 in 10.0 mi Calm Calm - N/A   Overcast
8:15 AM 41.7 °F - 38.5 °F 88% 30.11 in 10.0 mi Calm Calm - N/A   Overcast
8:35 AM 42.1 °F - 38.8 °F 88% 30.12 in 10.0 mi Calm Calm - N/A   Overcast
8:55 AM 42.3 °F - 39.0 °F 88% 30.12 in 10.0 mi Calm Calm - N/A   Overcast
9:15 AM 43.7 °F - 38.3 °F 81% 30.12 in 10.0 mi Calm Calm - N/A   Overcast
9:35 AM 44.6 °F - 37.9 °F 77% 30.13 in 10.0 mi Calm Calm - N/A   Overcast
9:55 AM 44.4 °F - 36.7 °F 74% 30.13 in 10.0 mi Calm Calm - N/A   Overcast
10:15 AM 45.0 °F - 37.0 °F 74% 30.12 in 10.0 mi Calm Calm - N/A   Overcast
10:35 AM 45.9 °F - 36.1 °F 69% 30.13 in 10.0 mi Calm Calm - N/A   Overcast
10:55 AM 45.7 °F - 35.6 °F 68% 30.13 in 10.0 mi Calm Calm - N/A   Overcast
11:15 AM 46.4 °F - 35.6 °F 66% 30.13 in 10.0 mi Calm Calm - N/A   Overcast
11:35 AM 46.8 °F - 36.0 °F 66% 30.13 in 10.0 mi Calm Calm - N/A   Overcast
11:55 AM 46.8 °F - 36.3 °F 67% 30.13 in 10.0 mi SSW 4.6 mph - N/A   Overcast
12:15 PM 47.1 °F - 35.2 °F 63% 30.13 in 10.0 mi Calm Calm - N/A   Overcast
12:35 PM 47.3 °F - 36.7 °F 67% 30.13 in 10.0 mi WSW 3.5 mph - N/A   Overcast
12:55 PM 46.8 °F - 36.3 °F 67% 30.13 in 10.0 mi Calm Calm - N/A   Overcast
1:15 PM 46.8 °F - 36.5 °F 67% 30.13 in 10.0 mi West 3.5 mph - N/A   Overcast
1:35 PM 47.3 °F - 37.6 °F 69% 30.12 in 10.0 mi Calm Calm - N/A   Overcast
1:55 PM 48.2 °F - 36.0 °F 63% 30.12 in 10.0 mi West 11.5 mph 17.3 mph N/A   Overcast
2:15 PM 47.5 °F - 36.3 °F 65% 30.11 in 10.0 mi WSW 9.2 mph 19.6 mph N/A   Overcast
2:35 PM 48.2 °F - 36.1 °F 63% 30.10 in 10.0 mi WSW 6.9 mph - N/A   Overcast
2:55 PM 48.6 °F - 33.8 °F 57% 30.10 in 10.0 mi WSW 12.7 mph 17.3 mph N/A   Overcast
3:15 PM 48.4 °F - 34.0 °F 58% 30.10 in 10.0 mi WSW 6.9 mph - N/A   Overcast
3:35 PM 48.4 °F - 34.7 °F 59% 30.10 in 10.0 mi WSW 8.1 mph 16.1 mph N/A   Overcast
3:55 PM 48.9 °F - 35.4 °F 60% 30.10 in 10.0 mi WSW 5.8 mph - N/A   Overcast
4:15 PM 49.1 °F - 35.6 °F 60% 30.10 in 10.0 mi WSW 6.9 mph - N/A   Overcast
4:35 PM 48.7 °F - 34.0 °F 57% 30.10 in 10.0 mi WSW 6.9 mph - N/A   Overcast
4:55 PM 49.1 °F - 34.9 °F 58% 30.09 in 10.0 mi WSW 4.6 mph - N/A   Overcast
5:15 PM 49.1 °F - 35.2 °F 59% 30.09 in 10.0 mi WSW 3.5 mph - N/A   Overcast
5:35 PM 49.1 °F - 36.3 °F 61% 30.10 in 10.0 mi Calm Calm - N/A   Overcast
5:55 PM 49.1 °F - 36.0 °F 61% 30.10 in 10.0 mi Calm Calm - N/A   Overcast
6:15 PM 49.1 °F - 36.7 °F 62% 30.10 in 10.0 mi NW 5.8 mph - N/A   Overcast
6:35 PM 47.3 °F - 38.8 °F 72% 30.11 in 10.0 mi NNW 5.8 mph - N/A   Overcast
6:55 PM 46.4 °F 45.2 °F 38.5 °F 74% 30.12 in 10.0 mi NW 3.5 mph - N/A   Overcast
7:15 PM 46.0 °F - 38.1 °F 74% 30.12 in 10.0 mi Calm Calm - N/A   Overcast
7:35 PM 46.0 °F - 38.5 °F 75% 30.12 in 10.0 mi Calm Calm - N/A   Overcast
7:55 PM 45.5 °F - 38.3 °F 76% 30.13 in 10.0 mi Calm Calm - N/A   Overcast
8:15 PM 45.1 °F - 38.7 °F 78% 30.13 in 10.0 mi Calm Calm - N/A   Overcast
8:35 PM 45.0 °F - 39.2 °F 80% 30.13 in 10.0 mi Calm Calm - N/A   Overcast
8:55 PM 44.8 °F - 39.2 °F 81% 30.14 in 10.0 mi Calm Calm - N/A   Overcast
9:15 PM 43.9 °F - 38.8 °F 82% 30.14 in 10.0 mi Calm Calm - N/A   Overcast
9:35 PM 43.5 °F 41.9 °F 39.4 °F 85% 30.15 in 10.0 mi West 3.5 mph - N/A   Overcast
9:55 PM 43.7 °F - 38.7 °F 82% 30.15 in 10.0 mi Calm Calm - N/A   Overcast
10:15 PM 43.7 °F 41.1 °F 38.8 °F 83% 30.15 in 10.0 mi West 4.6 mph - N/A   Overcast
10:35 PM 43.7 °F 41.1 °F 38.7 °F 82% 30.16 in 10.0 mi WSW 4.6 mph - N/A   Overcast
10:55 PM 43.3 °F 41.7 °F 38.5 °F 83% 30.16 in 10.0 mi West 3.5 mph - N/A   Overcast
11:15 PM 42.8 °F 41.1 °F 37.8 °F 82% 30.17 in 10.0 mi West 3.5 mph - N/A   Overcast
11:35 PM 43.0 °F 39.5 °F 37.2 °F 80% 30.17 in 10.0 mi West 5.8 mph - N/A   Overcast
11:55 PM 43.0 °F - 36.9 °F 79% 30.16 in 10.0 mi Calm Calm - N/A   Overcast